{"data":{"norad_id":59051,"epoch":"2026-09-19T22:24:38.693952Z","epoch_age_seconds":63996,"freshness":"FRESH","line1":"1 59051U 24039A   26262.93378118  .00000009  00000+0  23709-4 0  9999","line2":"2 59051  98.7125 221.0866 0005927 254.5127 105.5396 14.22437848132736","mean_motion":14.22437848,"eccentricity":0.0005927,"inclination_deg":98.7125,"raan_deg":221.0866,"arg_perigee_deg":254.5127,"mean_anomaly_deg":105.5396,"bstar":2.3709e-5,"rev_number":13273,"period_min":101.23465162465,"perigee_km":812.85533323906,"apogee_km":821.38459084186,"semimajor_km":7195.2569620405,"source":"CELESTRAK","updated_at":"2026-09-20T09:00:34.382936Z"}}